Simao Miranda

Scout - Penafiel
10 Sep 2028
Sonntag
Verarbeitung

Persönlichkeit

Anpassungsfähigkeit (15) Ehrgeiz (9) Kontroverse (15) Loyalität (17) Druck (6) Professionalität (10) Fairness (16) Temperament (17)

Profil

Trainerstil Demokratisch
Lizenz Kontinentale A
Entschlossenheit 4
Menschenführung 7
Motivation 5
Disziplin 5
Arbeitszufriedenheit
100%
Ermüdung
0%
Rolle Scout
Gehalt 53.6K p/W
Vertrag 14.03.2030

Leistung

Verhalten Gut
Trainingseffektivität
45%
Spielerentwicklung
45%
Verletzungsprävention
60%
Taktische Umsetzung
40%

Letzte Ereignisse

Nahm an einer Scouting-Besprechung teil jetzt
Nahm an einer Scouting-Besprechung teil 7T her
Nahm an einer Scouting-Besprechung teil 14T her
Nahm an einer Scouting-Besprechung teil 21T her
Nahm an einer Scouting-Besprechung teil 28T her
Nahm an einer Scouting-Besprechung teil 35T her
Nahm an einer Scouting-Besprechung teil 42T her
Nahm an einer Scouting-Besprechung teil 49T her

Aktuell beobachtet

64
Spieler Verein Status Fähigkeit Vertrauen Beobachtet Zuletzt beobachtet Letzte Stimme
Nicolas Sport Recife Aktiv 102 / 113 40% 1 09.09.2028 -
Máximo Magnoli Ferro Carril Oeste Aktiv 112 / 92 40% 1 09.09.2028 -
Tiago Gordillo San Miguel Aktiv 91 / 84 40% 1 08.09.2028 -
Vinícius Lira Bahia Aktiv 135 / 145 40% 1 08.09.2028 -
Anílson Pacos de Ferreira Aktiv 116 / 110 51% 1 12.06.2028 -
Musa Danjuma Umraniyespor Aktiv 108 / 120 40% 3 31.05.2028 -
Tyler Fletcher Rotherham United Aktiv 121 / 131 40% 3 31.05.2028 -
Kamaldeen Atiemo Wa All Stars Aktiv 108 / 116 40% 2 10.05.2028 -
Kiani Inge Groningen Aktiv 116 / 129 40% 4 08.05.2028 -
Giovanni Leoni Lincoln City Aktiv 136 / 140 40% 1 07.05.2028 -
Jan Bürger Northampton Town Aktiv 113 / 137 40% 3 06.05.2028 -
Andrija Bulatović Chamois Niortais Aktiv 122 / 126 40% 1 02.05.2028 -
Simone Suppa Virtus Verona Aktiv 95 / 104 40% 1 01.05.2028 -
Martim Cunha Porto Aktiv 104 / 123 40% 2 30.04.2028 -
Abubakar Adams Aduana Stars Aktiv 97 / 99 40% 2 29.04.2028 -
Konta Ismaily Aktiv 97 / 108 40% 3 27.04.2028 -
Makar Vysochenko Spartak Moscow Aktiv 88 / 104 40% 2 26.04.2028 -
Dmytro Strilchuk Podillia Aktiv 78 / 83 40% 1 26.04.2028 -
Tobiáš Pališčák Zlin Aktiv 97 / 103 40% 3 21.04.2028 -
Nicolò Moranduzzo Renate Aktiv 83 / 88 40% 1 19.04.2028 -
Artem Nosachev Spartak Moscow Aktiv 79 / 84 40% 1 17.04.2028 -
Bernardo Lima Porto Aktiv 104 / 104 40% 1 14.04.2028 -
Josh Nichols Oldham Athletic Aktiv 129 / 116 40% 1 13.04.2028 -
Miguel Figueiredo Benfica Aktiv 124 / 138 40% 1 10.04.2028 -
Jorthy Mokio ADO Den Haag Aktiv 132 / 129 40% 1 09.04.2028 -
Augusto Bando Ascoli Aktiv 108 / 108 40% 1 07.04.2028 -
Lamine Bèye Portimonense Aktiv 102 / 119 40% 1 04.04.2028 -
Riquelme Thompson-Jones Accrington Stanley Aktiv 118 / 117 40% 1 04.04.2028 -
Pablo Lúcio St. Gallen Aktiv 123 / 125 40% 1 03.04.2028 -
Tiaguinho Silva Vizela Aktiv 98 / 105 51% 1 10.01.2028 -
Vasco Santos Oliveirense Aktiv 101 / 103 40% 1 14.06.2027 -
Cheveyo Tsawa Club Brugge Aktiv 110 / 133 40% 1 31.05.2027 -
Scott Twine Bristol City Aktiv 127 / 110 40% 1 26.01.2027 -
Sam Greenwood Bristol City Aktiv 135 / 116 40% 1 26.01.2027 -
Lucas Lima Ceará Aktiv 112 / 127 40% 1 28.12.2026 -
Jack Rudoni Coventry City Aktiv 133 / 144 40% 2 26.12.2026 -
Yanis Begraoui Estoril Praia Aktiv 129 / 127 40% 1 26.12.2026 -
Juan Bezerra Zamalek Aktiv 131 / 115 40% 1 24.12.2026 -
Marcelo Allende Mamelodi Sundowns Aktiv 131 / 123 40% 3 22.12.2026 -
Finn Azaz Southampton Aktiv 124 / 132 40% 1 22.12.2026 -
Lorougnon Gohi Académico de Viseu Aktiv 123 / 121 40% 3 18.12.2026 -
Sorba Thomas Stoke City Aktiv 135 / 120 40% 2 12.12.2026 -
Zé Leite Moreirense Aktiv 112 / 118 40% 1 12.12.2026 -
Tristan Degreef Anderlecht Aktiv 133 / 114 40% 1 05.12.2026 -
Pedro Vite Pumas UNAM Aktiv 128 / 126 40% 1 04.12.2026 -
Petar Stanić Ludogorets Aktiv 146 / 138 40% 1 30.11.2026 -
Simo Maritimo Aktiv 110 / 115 40% 1 30.11.2026 -
Ilias Sebaoui Sint-Truiden Aktiv 124 / 129 40% 1 28.11.2026 -
Gabriel Silva Braga Aktiv 139 / 122 40% 1 27.11.2026 -
Lee Hyun-Ju Arouca Aktiv 116 / 119 40% 1 24.11.2026 -
Bongani Zungu Ajax Cape Town Aktiv 131 / 110 40% 1 22.11.2026 -
Jack McGlynn Stoke City Aktiv 116 / 142 40% 1 22.11.2026 -
Soma Anzai FC Tokyo Aktiv 123 / 106 40% 2 18.11.2026 -
Tariq Lamptey Queens Park Rangers Aktiv 120 / 131 40% 1 09.11.2026 -
Ezequiel Bullaude Santos Laguna Aktiv 114 / 131 40% 1 07.11.2026 -
Jordan van der Gaag Leiria Aktiv 113 / 99 40% 1 06.11.2026 -
Bradley Zwane SuperSport United Aktiv 100 / 129 40% 1 06.11.2026 -
Martín Ojeda Orlando City Aktiv 137 / 145 40% 1 03.11.2026 -
Franco Zapiola Platense Aktiv 113 / 133 40% 1 02.11.2026 -
Jan Virgili Club Brugge Aktiv 135 / 121 40% 1 06.10.2026 -
Joaquín Pereyra Minnesota United FC Aktiv 132 / 132 40% 1 08.09.2026 -
Santi García Gil Vicente Aktiv 141 / 135 40% 1 08.09.2026 -
Emerson Batalla Atletico Bucaramanga Aktiv 110 / 126 40% 1 07.09.2026 -
Leandro Lozano Boca Juniors Aktiv 114 / 126 40% 1 07.09.2026 -